Weather History for KP53 - October, 2013

Change the Weather History Date:

Saturday, October 12, 2013

  Actual Average (KISQ) Record (KISQ)
Temperature  
Mean Temperature 62 °F -  
Max Temperature 71 °F 53 °F 70 °F (1955)
Min Temperature 52 °F 35 °F 25 °F (1986)
Degree Days  
Heating Degree Days 3    
Growing Degree Days 12 (Base 50)    
Moisture  
Dew Point 53 °F    
Average Humidity 80    
Maximum Humidity 90    
Minimum Humidity 57    
Precipitation  
Precipitation 0.21 in - - ()
Sea Level Pressure  
Sea Level Pressure 29.92 in    
Wind  
Wind Speed 7 mph (SSW)    
Max Wind Speed 18 mph    
Max Gust Speed 29 mph    
Averages and records for this station are not official NWS values.
T = Trace of Precipitation, MM = Missing Value Source: NWS Daily Summary

Daily Weather History Graph

Daily Weather History Graph

Search for Another Location

Airport or City:

Trip Planner

Search our weather history database for the weather conditions in past years. The results will help you decide how hot, cold, wet, or windy it might be!

Date:

Astronomy

Oct. 12, 2013 Rise Set
Actual Time 8:00 AM EDT 7:05 PM EDT
Civil Twilight 7:29 AM EDT 7:35 PM EDT
Nautical Twilight 6:55 AM EDT 8:10 PM EDT
Astronomical Twilight 6:20 AM EDT 8:44 PM EDT
Moon 3:33 PM EDT (10/12) 12:41 AM EDT (10/12)
Length of Visible Light 12h 05m
Length of Day
11h 04m
First Quarter, 58% of the Moon is Illuminated
Oct 12
First Quarter
Oct 18
Full
Oct 26
Last Quarter
Nov 3
New
Nov 10
First Quarter

Hourly Weather History & Observations

Time (EDT) Temp. Dew Point Humidity Pressure Visibility Wind Dir Wind Speed Gust Speed Precip Events Conditions
12:56 AM 53.1 °F 50.0 °F 89% 29.99 in - SSW 4.6 mph - N/A   Unknown
1:56 AM 54.0 °F 50.0 °F 86% 29.96 in - Variable 5.8 mph - N/A   Unknown
2:56 AM 54.0 °F 48.9 °F 83% 29.96 in - SSW 4.6 mph - N/A   Unknown
3:56 AM 54.0 °F 48.9 °F 83% 29.95 in - SSW 5.8 mph - N/A   Unknown
4:56 AM 53.1 °F 48.9 °F 86% 29.94 in - Variable 5.8 mph - N/A   Unknown
5:56 AM 53.1 °F 48.0 °F 83% 29.94 in - SSW 5.8 mph - N/A   Unknown
6:56 AM 54.0 °F 48.9 °F 83% 29.94 in - South 6.9 mph - N/A   Unknown
7:56 AM 54.0 °F 50.0 °F 86% 29.92 in - South 4.6 mph - N/A   Unknown
8:56 AM 57.9 °F 52.0 °F 81% 29.92 in - South 9.2 mph - N/A   Unknown
9:56 AM 62.1 °F 53.1 °F 72% 29.91 in - South 9.2 mph - N/A   Unknown
10:56 AM 66.9 °F 53.1 °F 61% 29.89 in - South 11.5 mph 20.7 mph N/A   Unknown
11:56 AM 70.0 °F 54.0 °F 57% 29.90 in - SSW 17.3 mph 28.8 mph N/A   Unknown
12:56 PM 71.1 °F 55.0 °F 57% 29.89 in - South 16.1 mph 27.6 mph N/A   Unknown
1:56 PM 69.1 °F 55.0 °F 61% 29.87 in - SSW 18.4 mph 26.5 mph N/A   Unknown
2:56 PM 66.0 °F 57.0 °F 73% 29.88 in - SSW 9.2 mph 16.1 mph N/A   Unknown
3:56 PM 62.1 °F 59.0 °F 90% 29.86 in - South 9.2 mph 18.4 mph 0.10 in   Unknown
4:56 PM 63.0 °F 59.0 °F 87% 29.86 in - South 10.4 mph 18.4 mph 0.07 in   Unknown
5:56 PM 62.1 °F 59.0 °F 90% 29.88 in - South 8.1 mph - 0.02 in   Unknown
6:56 PM 62.1 °F 59.0 °F 90% 29.89 in - South 11.5 mph 16.1 mph 0.02 in   Unknown
7:56 PM 63.0 °F 59.0 °F 87% 29.90 in - South 6.9 mph - N/A   Unknown
8:56 PM 63.0 °F 59.0 °F 87% 29.91 in - South 6.9 mph - N/A   Unknown
9:56 PM 57.9 °F 48.0 °F 70% 29.95 in - NW 10.4 mph - N/A   Unknown
10:56 PM 53.1 °F 48.9 °F 86% 29.97 in - Calm Calm - N/A   Unknown
11:56 PM 52.0 °F 48.9 °F 89% 29.99 in - SSW 4.6 mph - N/A   Unknown